Location: Albany
(35.0000°S, 118.0000°E)
Time: 17:03:46
(UTC-04:00)

Cosmos 1626 - Visible Passes

Search period start: 23 April 2018 00:00
Search period end: 03 May 2018 00:00
Orbit: 494 x 499 km, 82.5° (Epoch: 22 April)

Date Brightness Start Highest point End Pass type
(mag) Time Alt. Az. Time Alt. Az. Time Alt. Az.
23 Apr 3.8 06:42:44 10° NNW 06:46:14 37° W 06:49:48 10° S visible
23 Apr 5.1 16:39:25 10° SSE 16:42:02 18° ESE 16:44:38 10° ENE visible
24 Apr 2.9 06:21:31 10° NNW 06:25:12 58° W 06:28:58 10° S visible
24 Apr 5.5 16:19:22 10° SE 16:20:56 12° ESE 16:22:29 10° E visible
24 Apr 2.8 17:52:56 10° SSW 17:56:21 32° W 17:59:43 10° NNW visible
25 Apr 2.2 06:00:27 10° N 06:04:12 90° NNW 06:08:01 10° S visible
25 Apr 2.3 17:31:43 10° SSW 17:35:24 50° W 17:39:02 10° N visible
26 Apr 2.0 17:10:38 10° S 17:14:26 79° W 17:18:10 10° N visible
27 Apr 5.6 06:56:47 10° W 06:57:45 11° WSW 06:58:43 10° WSW visible
27 Apr 2.4 16:51:45 31° S 16:53:26 67° E 16:57:09 10° NNE visible
28 Apr 5.2 06:34:17 10° WNW 06:36:38 16° WSW 06:39:00 10° SW visible
28 Apr 3.5 16:33:14 36° ENE 16:33:14 36° ENE 16:35:58 10° NNE visible
29 Apr 4.8 06:12:30 10° NW 06:15:31 23° WSW 06:18:35 10° SSW visible
29 Apr 5.1 16:14:21 11° NE 16:14:21 11° NE 16:14:36 10° NE visible
30 Apr 4.1 05:51:01 10° NW 05:54:26 33° W 05:57:56 10° SSW visible
